This is the latest recevied weather packets stored in our database for station/object JS2WAD-13. If no packets are shown the sender has not sent any weather packets the latest 10 day(s).
| Time | Temp. | Humidity | Pressure | Rain* | Wind** | Luminosity | Snow |
|---|---|---|---|---|---|---|---|
| 1777427504 | 19.44° C | 54% | 905.9 hPa | 0 mm | - | 128 W/m² | - |
| 1777427204 | 19.44° C | 53% | 905.7 hPa | 0 mm | - | 123 W/m² | - |
| 1777426904 | 19.44° C | 53% | 905.9 hPa | 0 mm | - | 93 W/m² | - |
| 1777426604 | 18.89° C | 53% | 905.9 hPa | 0 mm | - | 102 W/m² | - |
| 1777426304 | 19.44° C | 53% | 905.8 hPa | 0 mm | - | 97 W/m² | - |
| 1777426004 | 19.44° C | 52% | 905.8 hPa | 0 mm | - | 90 W/m² | - |
| 1777425704 | 18.89° C | 53% | 905.9 hPa | 0 mm | - | 95 W/m² | - |
| 1777425404 | 18.89° C | 52% | 905.7 hPa | 0 mm | - | 120 W/m² | - |
| 1777425104 | 18.89° C | 52% | 905.7 hPa | 0 mm | - | 107 W/m² | - |
| 1777424804 | 18.89° C | 52% | 905.8 hPa | 0 mm | - | 86 W/m² | - |
| 1777424504 | 18.89° C | 53% | 905.9 hPa | 0 mm | - | 116 W/m² | - |
| 1777424204 | 19.44° C | 51% | 905.9 hPa | 0 mm | - | 98 W/m² | - |
| 1777423904 | 19.44° C | 51% | 905.7 hPa | 0 mm | - | 118 W/m² | - |
| 1777423604 | 19.44° C | 52% | 905.6 hPa | 0 mm | - | 105 W/m² | - |
| 1777423304 | 19.44° C | 51% | 905.7 hPa | 0 mm | - | 104 W/m² | - |
| 1777423004 | 19.44° C | 49% | 905.7 hPa | 0 mm | - | 130 W/m² | - |
| 1777422704 | 19.44° C | 48% | 905.6 hPa | 0 mm | - | 123 W/m² | - |
| 1777422404 | 20° C | 48% | 905.6 hPa | 0 mm | - | 137 W/m² | - |
| 1777422104 | 19.44° C | 48% | 905.6 hPa | 0 mm | - | 176 W/m² | - |
| 1777421805 | 19.44° C | 47% | 905.5 hPa | 0 mm | - | 178 W/m² | - |
| 1777421504 | 19.44° C | 47% | 905.4 hPa | 0 mm | - | 163 W/m² | - |
| 1777421204 | 19.44° C | 48% | 905.4 hPa | 0 mm | - | 153 W/m² | - |
| 1777420904 | 19.44° C | 46% | 905.4 hPa | 0 mm | - | 128 W/m² | - |
| 1777420604 | 19.44° C | 46% | 905.3 hPa | 0 mm | - | 109 W/m² | - |
| 1777420304 | 19.44° C | 46% | 905.3 hPa | 0 mm | - | 91 W/m² | - |
* Rain latest hour (hover to see other rain measurements)
** Current wind speed in m/s (hover to see current wind gust speed)